This is the latest recevied weather packets stored in our database for station/object JA3QOS-13. If no packets are shown the sender has not sent any weather packets the latest 10 day(s).
| Time | Temp. | Humidity | Pressure | Rain* | Wind** | Luminosity | Snow |
|---|---|---|---|---|---|---|---|
| 1787893204 | 23.89° C | 99% | 1012.2 hPa | 0 mm | - | - | - |
| 1787891403 | 23.89° C | 99% | 1012.4 hPa | 0 mm | - | - | - |
| 1787889604 | 23.89° C | 99% | 1012.5 hPa | 0 mm | - | - | - |
| 1787887804 | 23.89° C | 99% | 1012.9 hPa | 0 mm | - | - | - |
| 1787886004 | 23.89° C | 99% | 1012.6 hPa | 0 mm | - | - | - |
| 1787884204 | 23.89° C | 99% | 1012.7 hPa | 0 mm | - | - | - |
| 1787882405 | 23.89° C | 99% | 1012.8 hPa | 0 mm | - | - | - |
| 1787880605 | 23.33° C | 99% | 1013.2 hPa | 0 mm | - | - | - |
| 1787878804 | 23.33° C | 99% | 1013.3 hPa | 0 mm | - | - | - |
| 1787877003 | 22.78° C | 99% | 1013.4 hPa | 0 mm | - | - | - |
| 1787875214 | 23.33° C | 99% | 1013 hPa | 0 mm | - | - | - |
| 1787873403 | 23.33° C | 99% | 1012.9 hPa | 1.78 mm | - | - | - |
| 1787871604 | 22.22° C | 99% | 1013 hPa | 1.78 mm | - | - | - |
| 1787869803 | 22.22° C | 99% | 1012.7 hPa | 0 mm | - | - | - |
| 1787868004 | 22.22° C | 99% | 1012.5 hPa | 0 mm | - | - | - |
| 1787866204 | 21.11° C | 99% | 1012 hPa | 0 mm | - | - | - |
| 1787864403 | 21.11° C | 99% | 1012.2 hPa | 5.33 mm | - | - | - |
| 1787862604 | 21.11° C | 99% | 1011.8 hPa | 12.19 mm | - | - | - |
| 1787860804 | 21.11° C | 99% | 1012.1 hPa | 8.13 mm | - | - | - |
| 1787859004 | 20.56° C | 99% | 1012.2 hPa | 8.13 mm | - | - | - |
| 1787857203 | 20.56° C | 99% | 1012.2 hPa | 11.18 mm | - | - | - |
| 1787855404 | 20.56° C | 99% | 1011.8 hPa | 9.91 mm | - | - | - |
| 1787853603 | 21.67° C | 99% | 1011.9 hPa | 6.1 mm | - | - | - |
| 1787851804 | 21.11° C | 99% | 1011.4 hPa | 16.76 mm | - | - | - |
| 1787850004 | 21.67° C | 99% | 1011.2 hPa | 26.92 mm | - | - | - |
* Rain latest hour (hover to see other rain measurements)
** Current wind speed in m/s (hover to see current wind gust speed)